Home > Weather > Augusta > Past weeks

Flag for USA Weather for the Past 2 Weeks in Augusta, Georgia, USA

Now
90 °F

Light rain. Sunny.


Feels Like: 88 °F
Forecast: 68 / 91 °F
Wind: 6 mph from South

Location: Daniel Field

Current Time: Apr 29, 2016 at 6:52:26 PM

Latest Report: Apr 29, 2016 at 5:53 PM


Visibility: 10 mi

Pressure: 29.90 "Hg

Humidity: 29%

Dew Point: 54 °F

Location of AugustaLocation

Historic Weather in Augusta — Graph

°F

Augusta Temperature Yesterday

Maximum temperature yesterday: 87 °F (at 4:53 PM)
Minimum temperature yesterday: 69 °F (at 5:53 AM)
Average temperature yesterday: 77 °F

High & Low Weather Summary for the Past Weeks

 TemperatureHumidityPressure
High92 °F (Apr 29, 3:53 PM)94% (Apr 23, 12:53 AM)30.41 "Hg (Apr 23, 12:53 AM)
Low51 °F (Apr 17, 6:53 AM)17% (Apr 19, 4:53 PM)29.81 "Hg (Apr 27, 6:53 PM)
Average71 °F53%30.08 "Hg
* Reported Apr 14 4:53 PM — Apr 29 4:53 PM, Augusta, Weather by CustomWeather, © 2016

Note: Actual official high and low records may vary slightly from our data, if they occured in-between our weather recording intervals... More about our weather records

Advertising

Augusta Weather History for the Previous 24 Hours

Scroll right to see more
 ConditionsComfort  
Time TempWeatherWind HumidityBarometerVisibility
4:53 PM
Fri, Apr 29
92 °FSunny.No wind25%29.90 "Hg10 mi
3:53 PM92 °FSunny.No wind26%29.92 "Hg10 mi
2:53 PM91 °FSunny.6 mph26%29.94 "Hg10 mi
1:53 PM89 °FSunny.7 mph31%29.94 "Hg10 mi
12:53 PM86 °FSunny.No wind36%29.97 "Hg10 mi
11:53 AM83 °FSunny.No wind38%29.97 "Hg10 mi
10:53 AM82 °FSunny.8 mph41%29.98 "Hg10 mi
9:53 AM79 °FSunny.10 mph45%29.99 "Hg10 mi
8:53 AM75 °FSunny.9 mph64%30.00 "Hg10 mi
7:53 AM71 °FSunny.6 mph78%29.99 "Hg10 mi
6:53 AM69 °FClear.7 mph81%29.96 "Hg10 mi
5:53 AM71 °FClear.7 mph78%29.94 "Hg10 mi
4:53 AM71 °FClear.6 mph81%29.92 "Hg10 mi
3:53 AM72 °FClear.7 mph81%29.91 "Hg10 mi
2:53 AM73 °FClear.5 mph79%29.91 "Hg10 mi
1:53 AM74 °FClear.3 mph76%29.92 "Hg10 mi
12:53 AM75 °FClear.5 mph74%29.93 "Hg10 mi
11:53 PM
Thu, Apr 28
76 °FClear.6 mph72%29.93 "Hg10 mi
10:53 PM77 °FClear.6 mph71%29.92 "Hg10 mi
9:53 PM79 °FClear.6 mph67%29.92 "Hg10 mi
8:53 PM79 °FSunny.5 mph69%29.90 "Hg10 mi
7:53 PM83 °FSunny.5 mph57%29.89 "Hg10 mi
6:53 PM86 °FScattered clouds.5 mph48%29.87 "Hg10 mi
Weather by CustomWeather, © 2016

See weather overviewHow to use our weather pages